Location: downtown San Diego
(32.7310°N, 117.1990°W)
Time: 20:06:39
(UTC-08:00)

NOAA 11 - Pass Details

Date: 19 May 2017
Orbit: 834 x 849 km, 98.5° (Epoch: 24 November)

Event Time Altitude Azimuth Distance (km) Brightness Sun altitude
Exits shadow 21:48:31 48° 155° (SSE) 1,087 4.3 -22.4°
Maximum altitude 21:50:06 81° 76° (ENE) 855 4.1 -22.7°
Drops below altitude 10° 21:55:34 10° 350° (N) 2,458 7.4 -23.5°
Sets 21:57:55 0° 349° (N) 3,393 8.2 -23.8°
